Overview Statistics Trail Chart Weather Telemetry Raw packets
 

This is the latest recevied weather packets stored in our database for station/object NW5W-12. If no packets are shown the sender has not sent any weather packets the latest 10 day(s).

<< 109 110 111 112 113 114 115 >>
Time Temp. Humidity Pressure Rain* Wind** Luminosity Snow
1787878740 24.44° C 34% 1021.8 hPa 0 mm - - -
1787878440 24.44° C 33% 1021.8 hPa 0 mm - - -
1787878140 23.89° C 33% 1022 hPa 0 mm - - -
1787877840 23.89° C 33% 1022.1 hPa 0 mm - - -
1787877540 23.89° C 33% 1022 hPa 0 mm - - -
1787877240 23.89° C 37% 1022 hPa 0 mm - - -
1787876940 23.89° C 42% 1022.1 hPa 0 mm - - -
1787876640 23.33° C 42% 1022.1 hPa 0 mm - - -
1787876340 23.33° C 43% 1022.1 hPa 0 mm - - -
1787876040 23.33° C 43% 1022.1 hPa 0 mm - - -
1787875740 23.33° C 42% 1022.1 hPa 0 mm - - -
1787875440 23.33° C 41% 1022.1 hPa 0 mm - - -
1787875140 23.33° C 41% 1022.1 hPa 0 mm - - -
1787874840 23.89° C 41% 1022.1 hPa 0 mm - - -
1787874540 23.89° C 40% 1022 hPa 0 mm - - -
1787874240 23.89° C 40% 1022.1 hPa 0 mm - - -
1787873939 23.89° C 38% 1022.1 hPa 0 mm - - -
1787873640 23.89° C 40% 1022.1 hPa 0 mm - - -
1787873340 23.89° C 36% 1022.1 hPa 0 mm - - -
1787873039 23.89° C 38% 1022.2 hPa 0 mm - - -
1787872740 25° C 33% 1022.3 hPa 0 mm - - -
1787872440 25.56° C 33% 1022.3 hPa 0 mm - - -
1787872140 25.56° C 32% 1022.1 hPa 0 mm - - -
1787871840 25.56° C 31% 1022 hPa 0 mm - - -
1787871539 25° C 32% 1021.9 hPa 0 mm - - -

* Rain since midnight (hover to see other rain measurements)
** Current wind speed in m/s (hover to see current wind gust speed)